[[{"header":{"parameterUnit":"m.s-1","parameterCategory":1,"la1":30.2991,"la2":30.254,"lo1":-89.0895,"lo2":-89.0444,"dy":0.0017,"dx":0.0017,"nx":28,"ny":28,"refTime":"2024-04-27T03:00:00:Z","depth":0,"parameterNumber":2,"parameterNumberName":"U-component_of_WINDS"},"data":[0,0,0,0,0,0,0,0,0,0,0,0,0,0,0,0,0,0,0,0,0,0,0,0,0,0,0,0,0,0,0,0,0,0,0,0,0,0,0,0,0,0,0,0,0,0,0,0,0,0,0,0,0,0,0,0,0,0,-6.7173,-6.7174,0,-6.7231,-6.7232,-6.7232,-6.7215,-6.7213,-6.7212,-6.7211,-6.7266,-6.7269,-6.7271,0,0,0,0,0,0,0,0,0,0,0,0,0,-6.7045,-6.7048,-6.7173,-6.7174,-6.7175,-6.7231,-6.7232,-6.7232,-6.7215,-6.7213,-6.7212,-6.7211,-6.7265,-6.7269,-6.7272,0,0,0,0,0,0,0,0,0,0,0,0,0,-6.7102,-6.7049,-6.7173,-6.7173,-6.7173,-6.7231,-6.7232,-6.7233,-6.7215,-6.7213,-6.7212,-6.721,-6.7264,-6.7268,-6.7272,-6.7332,0,0,-6.7284,-6.7286,0,0,0,0,0,0,0,0,-6.7099,-6.7106,-6.7172,-6.7173,-6.7174,-6.7214,-6.7207,-6.7266,-6.7216,-6.7199,-6.7211,-6.7209,-6.725,-6.7255,-6.727,-6.7335,-6.7337,-6.7284,-6.7287,-6.7288,-6.7289,0,0,0,0,0,0,0,-6.7095,-6.7104,-6.7196,-6.7173,-6.7174,-6.7169,-6.7175,-6.7218,-6.7234,-6.72,-6.7199,-6.7207,-6.725,-6.7266,-6.7271,-6.7338,-6.7284,-6.7288,-6.729,-6.7292,-6.7456,-6.7458,0,0,0,0,0,0,-6.7091,-6.7101,-6.7194,-6.7198,-6.7131,-6.7173,-6.7179,-6.7203,-6.7233,-6.7236,-6.7208,-6.7206,-6.726,-6.7266,-6.7273,-6.7344,-6.7288,-6.7292,-6.7294,-6.7454,-6.7456,-6.7459,0,0,0,0,0,0,-6.7088,-6.7099,-6.7192,-6.7149,-6.716,-6.7177,-6.7203,-6.7205,-6.722,-6.7239,-6.7242,-6.7221,-6.7259,-6.7267,-6.7318,-6.7346,-6.7294,-6.7297,-6.7451,-6.7455,-6.7457,-6.7488,0,0,0,0,0,0,-6.7084,-6.7098,-6.7121,-6.715,-6.7163,-6.7236,-6.7205,-6.7207,-6.7228,-6.7225,-6.7252,-6.7255,-6.7258,-6.7312,-6.7322,-6.735,-6.73,-6.7449,-6.7453,-6.7456,-6.7485,-6.7492,-6.7498,0,0,0,0,0,-6.708,-6.7127,-6.7123,-6.7134,-6.7192,-6.7238,-6.7245,-6.7249,-6.723,-6.7253,-6.7266,-6.7254,-6.7343,-6.7318,-6.7328,-6.7358,-6.7447,-6.7452,-6.7456,-6.7482,-6.7491,-6.7498,0,0,0,0,0,0,-6.7099,-6.713,-6.7126,-6.7183,-6.7209,-6.7235,-6.7263,-6.7258,-6.7288,-6.7284,-6.7286,-6.7293,-6.7345,-6.7357,-6.7329,-6.7419,-6.7392,-6.7399,-6.7408,-6.7416,-6.7423,-6.7417,-6.7303,0,0,0,0,0,-6.711,-6.7146,-6.7171,-6.7219,-6.7232,-6.7246,-6.7266,-6.7268,-6.7293,-6.7303,-6.7319,-6.7343,-6.7376,-6.7398,-6.7429,-6.7488,-6.7493,-6.7515,-6.7521,-6.7527,-6.7531,-6.7563,-6.7573,-6.7474,-6.7474,-6.7473,0,0,-6.7132,-6.7154,-6.7176,-6.7224,-6.7243,-6.7279,-6.7255,-6.7294,-6.732,-6.7308,-6.7356,-6.737,-6.7397,-6.7453,-6.7478,-6.7464,-6.7561,-6.7533,-6.7537,-6.7538,-6.7569,-6.7578,-6.7587,-6.7477,-6.7476,-6.7476,0,0,-6.7191,-6.7213,-6.7255,-6.7276,-6.7307,-6.7316,-6.7327,-6.7355,-6.7364,-6.7414,-6.7406,-6.7438,-6.7495,-6.7515,-6.7532,-6.7603,-6.7594,-6.7614,-6.7647,-6.7679,-6.7686,-6.7693,-6.7717,-6.7726,-6.7619,-6.762,-6.762,0,-6.7214,-6.7269,-6.7277,-6.7317,-6.7338,-6.7333,-6.7375,-6.7395,-6.7434,-6.7448,-6.7434,-6.7507,-6.7525,-6.7584,-6.7602,-6.7618,-6.7629,-6.7608,-6.7685,-6.7692,-6.7698,-6.7721,-6.773,-6.7622,-6.7621,-6.7621,-6.7621,0,-6.7296,-6.7334,-6.7365,-6.7405,-6.743,-6.7471,-6.7484,-6.7509,-6.751,-6.7521,-6.7572,-6.7594,-6.763,-6.7646,-6.7646,-6.7706,-6.7697,-6.7684,-6.7656,-6.771,-6.7731,-6.774,-6.7625,-6.7624,-6.7623,-6.7623,0,0,-6.7363,-6.741,-6.7421,-6.7439,-6.7475,-6.7504,-6.7546,-6.7583,-6.7604,-6.7632,-6.7666,-6.7717,-6.7706,-6.7726,-6.773,-6.7758,-6.7811,-6.7741,-6.7742,-6.7751,-6.7877,-6.7884,-6.7894,-6.7807,-6.7809,-6.781,-6.7874,0,-6.7423,-6.7497,-6.7507,-6.7571,-6.7607,-6.7605,-6.7641,-6.7666,-6.7679,-6.7711,-6.7725,-6.776,-6.7744,-6.7756,-6.7784,-6.7799,-6.7836,-6.7795,-6.7837,-6.7838,-6.7826,-6.7905,-6.7912,-6.7971,-6.7883,-6.7884,-6.7885,0,-6.7501,-6.7534,-6.7603,-6.7636,-6.7651,-6.7683,-6.7719,-6.775,-6.778,-6.7787,-6.7812,-6.7812,-6.7855,-6.783,-6.7888,-6.786,-6.7879,-6.7889,-6.7891,-6.7892,-6.7862,-6.7905,-6.799,-6.7998,-6.7899,-6.7898,-6.7897,0,-6.754,-6.7602,-6.7651,-6.7668,-6.7707,-6.773,-6.7748,-6.7776,-6.7799,-6.783,-6.7845,-6.7881,-6.79,-6.7928,-6.7938,-6.7919,-6.7996,-6.7971,-6.8001,-6.8001,-6.8014,-6.8012,-6.81,-6.8032,-6.8032,-6.8032,-6.8032,0,-6.7604,-6.7645,-6.767,-6.7699,-6.7747,-6.7759,-6.7805,-6.7821,-6.7847,-6.788,-6.7881,-6.7912,-6.7925,-6.7958,-6.7967,-6.8013,-6.8023,-6.8029,-6.803,-6.8026,-6.8025,-6.8035,-6.803,-6.8034,-6.8034,-6.8033,-6.8033,0,-6.7653,-6.7671,-6.7725,-6.776,-6.777,-6.7803,-6.7832,-6.7861,-6.7876,-6.7917,-6.7928,-6.795,-6.7989,-6.8003,-6.805,-6.8056,-6.8109,-6.8109,-6.8099,-6.8099,-6.8127,-6.8123,-6.8221,-6.8234,-6.8161,-6.8162,-6.8162,0,-6.769,-6.7723,-6.7762,-6.7785,-6.7804,-6.7841,-6.7865,-6.7879,-6.7904,-6.7942,-6.7966,-6.8006,-6.8037,-6.81,-6.8119,-6.8156,-6.8154,-6.8187,-6.8159,-6.8155,-6.8152,-6.8148,-6.8151,-6.819,-6.8191,-6.8191,-6.8192,0,-6.7754,-6.7763,-6.7798,-6.7837,-6.7866,-6.7896,-6.7926,-6.7945,-6.7964,-6.7992,-6.8033,-6.8058,-6.8108,-6.8146,-6.8184,-6.8201,-6.8199,-6.8201,-6.821,-6.8204,-6.8197,-6.8199,-6.8109,-6.8197,-6.8197,-6.8196,-6.8196,-6.8196,-6.7797,-6.7826,-6.7859,-6.7898,-6.7923,-6.7952,-6.7981,-6.8001,-6.8036,-6.8078,-6.8085,-6.8128,-6.8159,-6.821,-6.823,-6.8264,-6.8255,-6.8268,-6.827,-6.8272,-6.8273,-6.8195,-6.8271,-6.8271,-6.8271,-6.8271,-6.8271,0,-6.7859,-6.7881,-6.7917,-6.796,-6.7992,-6.7991,-6.8025,-6.805,-6.8089,-6.8119,-6.8152,-6.8199,-6.8238,-6.8262,-6.8301,-6.8323,-6.8323,-6.8333,-6.8329,-6.8333,-6.828,-6.8268,-6.8332,-6.8332,-6.8332,-6.8332,-6.8332,-6.8332,-6.7894,-6.7943,-6.7956,-6.8017,-6.8039,-6.8083,-6.8102,-6.8129,-6.8153,-6.8206,-6.8239,-6.8256,-6.8284,-6.8325,-6.8361,-6.8367,-6.838,-6.8389,-6.8395,-6.8343,-6.8337,-6.8331,-6.8319,-6.8393,-6.8393,-6.8444,-6.8445,-6.8445]},{"header":{"parameterUnit":"m.s-1","parameterCategory":1,"la1":30.2991,"la2":30.254,"lo1":-89.0895,"lo2":-89.0444,"dy":0.0017,"dx":0.0017,"nx":28,"ny":28,"refTime":"2024-04-27T03:00:00:Z","depth":0,"parameterNumber":3,"parameterNumberName":"V-component_of_WINDS"},"data":[0,0,0,0,0,0,0,0,0,0,0,0,0,0,0,0,0,0,0,0,0,0,0,0,0,0,0,0,0,0,0,0,0,0,0,0,0,0,0,0,0,0,0,0,0,0,0,0,0,0,0,0,0,0,0,0,0,0,4.1701,4.1702,0,4.178,4.1781,4.1781,4.1828,4.1828,4.1828,4.1829,4.1905,4.1906,4.1908,0,0,0,0,0,0,0,0,0,0,0,0,0,4.1589,4.1591,4.1701,4.1702,4.1703,4.1779,4.1781,4.1782,4.1828,4.1828,4.1828,4.1829,4.1904,4.1906,4.1908,0,0,0,0,0,0,0,0,0,0,0,0,0,4.165,4.1592,4.1701,4.1735,4.1739,4.1779,4.1781,4.1782,4.1828,4.1828,4.1828,4.1829,4.1903,4.1906,4.1909,4.1919,0,0,4.1917,4.1918,0,0,0,0,0,0,0,0,4.1646,4.1654,4.1729,4.1733,4.1738,4.1794,4.1769,4.1828,4.1828,4.1794,4.1829,4.1829,4.1867,4.1873,4.1887,4.1923,4.1926,4.1917,4.1919,4.192,4.1921,0,0,0,0,0,0,0,4.1642,4.1651,4.1732,4.173,4.1735,4.1746,4.1755,4.1781,4.1828,4.1797,4.1801,4.181,4.187,4.1884,4.1889,4.1927,4.1917,4.192,4.1921,4.1922,4.1979,4.1978,0,0,0,0,0,0,4.1633,4.1647,4.1729,4.1734,4.1692,4.1748,4.1758,4.1776,4.1828,4.1836,4.1809,4.1811,4.1879,4.1886,4.1892,4.191,4.192,4.1923,4.1924,4.1979,4.1979,4.1978,0,0,0,0,0,0,4.163,4.164,4.1726,4.1692,4.1704,4.175,4.1769,4.1777,4.1792,4.1837,4.1845,4.1815,4.188,4.1888,4.1913,4.1913,4.1924,4.1926,4.1979,4.1979,4.1978,4.1944,0,0,0,0,0,0,4.1627,4.1638,4.1643,4.1692,4.1705,4.1746,4.1769,4.1778,4.1797,4.1801,4.1845,4.1853,4.1881,4.1909,4.1916,4.1917,4.1929,4.1979,4.1979,4.1979,4.1945,4.1942,4.194,0,0,0,0,0,4.1623,4.1628,4.1643,4.1653,4.1712,4.1746,4.1754,4.1787,4.1797,4.1802,4.1831,4.1851,4.1912,4.1911,4.1919,4.1921,4.1979,4.1979,4.1979,4.1946,4.1943,4.194,0,0,0,0,0,0,4.1576,4.1635,4.1652,4.1674,4.1705,4.1754,4.1761,4.1782,4.181,4.1812,4.1852,4.1861,4.1883,4.1904,4.1902,4.1936,4.1948,4.1949,4.1921,4.1918,4.1915,4.191,4.1931,0,0,0,0,0,4.1569,4.1593,4.1643,4.1657,4.1672,4.1714,4.173,4.1754,4.1787,4.18,4.1831,4.1861,4.1888,4.1904,4.193,4.1949,4.196,4.1954,4.1952,4.195,4.195,4.1964,4.1963,4.1977,4.1977,4.1977,0,0,4.1553,4.1588,4.16,4.1649,4.1676,4.1699,4.1724,4.1747,4.1766,4.1803,4.1829,4.1853,4.189,4.1913,4.1924,4.1931,4.1949,4.1949,4.1947,4.1949,4.1964,4.1962,4.1961,4.1977,4.1977,4.1977,0,0,4.1537,4.1565,4.1582,4.161,4.1651,4.168,4.1684,4.173,4.1749,4.1776,4.1806,4.1827,4.1871,4.1897,4.1916,4.1914,4.1934,4.1921,4.1907,4.1921,4.1919,4.1919,4.1919,4.1919,4.1921,4.1921,4.1921,0,4.1511,4.1549,4.1587,4.161,4.1631,4.1669,4.1686,4.171,4.1757,4.1771,4.1779,4.1837,4.1864,4.1895,4.1895,4.1908,4.1915,4.1916,4.1917,4.1916,4.1916,4.1917,4.1917,4.192,4.192,4.192,4.192,0,4.1517,4.1543,4.1551,4.1599,4.1621,4.1641,4.1682,4.1699,4.1722,4.175,4.1778,4.1813,4.1849,4.1858,4.1878,4.1892,4.1895,4.1909,4.1923,4.1912,4.1914,4.1915,4.1917,4.1918,4.1918,4.1919,0,0,4.1471,4.1543,4.1545,4.1569,4.1619,4.1639,4.1662,4.1699,4.1714,4.1746,4.1766,4.1804,4.1819,4.184,4.1865,4.1876,4.1874,4.1889,4.1891,4.1886,4.1893,4.1883,4.1883,4.1889,4.1889,4.1889,4.1891,0,4.1463,4.1507,4.1543,4.1573,4.1598,4.1636,4.1656,4.1688,4.1716,4.1741,4.177,4.1798,4.1814,4.1828,4.1841,4.1872,4.1876,4.1872,4.1908,4.1908,4.1898,4.1883,4.1871,4.1871,4.1891,4.1892,4.1892,0,4.1459,4.1493,4.1525,4.1576,4.1588,4.1605,4.1644,4.1667,4.1706,4.1725,4.1751,4.1778,4.1804,4.1815,4.1851,4.1848,4.1865,4.1882,4.1883,4.1888,4.1899,4.1888,4.1872,4.1872,4.1893,4.1893,4.1893,0,4.1424,4.1478,4.1505,4.1524,4.1583,4.1595,4.162,4.1659,4.168,4.1713,4.1727,4.1762,4.1781,4.1808,4.1844,4.1848,4.1877,4.1891,4.1894,4.1893,4.1898,4.1897,4.1885,4.1908,4.1908,4.1908,4.1908,0,4.1412,4.143,4.1491,4.1507,4.153,4.1573,4.1594,4.1622,4.1657,4.168,4.1714,4.1735,4.1781,4.1807,4.1835,4.1862,4.187,4.1886,4.1893,4.1884,4.1882,4.1895,4.1896,4.1908,4.1908,4.1908,4.1908,0,4.1376,4.1417,4.145,4.1505,4.1519,4.1534,4.1581,4.1599,4.1629,4.1658,4.1667,4.1714,4.1747,4.1786,4.1831,4.185,4.1875,4.1885,4.1862,4.1867,4.1868,4.1868,4.1864,4.1867,4.1887,4.1887,4.1887,0,4.1366,4.1382,4.144,4.1459,4.1484,4.1513,4.1536,4.1578,4.16,4.1648,4.166,4.1696,4.1728,4.1779,4.1817,4.1852,4.1864,4.186,4.1869,4.186,4.1865,4.1864,4.1867,4.1858,4.1857,4.1857,4.1857,0,4.1343,4.1364,4.1395,4.1436,4.1462,4.1495,4.1529,4.1542,4.1592,4.1615,4.1651,4.1675,4.1724,4.1759,4.18,4.1825,4.1849,4.1854,4.1857,4.1847,4.1833,4.1842,4.1857,4.1853,4.1854,4.1854,4.1854,4.1854,4.1321,4.1338,4.1382,4.1417,4.1449,4.1481,4.1501,4.1536,4.1567,4.161,4.1634,4.1669,4.171,4.1767,4.1792,4.1821,4.1829,4.1832,4.1833,4.1834,4.1832,4.1829,4.1828,4.1828,4.1828,4.1828,4.1829,0,4.1301,4.1333,4.1365,4.1413,4.1441,4.1464,4.1504,4.1526,4.1557,4.1594,4.1625,4.1667,4.1703,4.1745,4.1784,4.1799,4.1811,4.1807,4.1807,4.1813,4.1822,4.1816,4.1797,4.1797,4.1797,4.1797,4.1797,4.1797,4.1294,4.1325,4.1351,4.1399,4.143,4.1467,4.1488,4.1518,4.1548,4.1594,4.1625,4.1653,4.1692,4.1735,4.1769,4.1781,4.1793,4.1787,4.1801,4.1809,4.1812,4.1814,4.1809,4.1789,4.1789,4.1791,4.1791,4.1791]}]]